SJX778 PHKO-PKMJ

Flight info

Callsign SJX778
Flight time N/A
Altitude 30000
Route KOA V20 JULLE V16 GECKO V4 BINJO CHOKO R584 MANRE/N0461F320 R584 MAJ
Aircraft A321/M-SDE3FGHIRWY/LB1

Departure

Time N/A
Airport Ellison Onizuka Kona International Airport at Keāhole (PHKO)

Arrival

Time 2026-05-03 22:14
Airport Marshall Islands International Airport (PKMJ)
Time Latitude Longitude Altitude Speed Heading
2026-05-03 20:15 13.53618 -176.45238 30049 ft 479 kts 244°
2026-05-03 20:15 13.50546 -176.51314 30049 ft 479 kts 244°
2026-05-03 20:16 13.47485 -176.57386 30048 ft 479 kts 245°
2026-05-03 20:16 13.44418 -176.63452 30056 ft 478 kts 244°
2026-05-03 20:17 13.41355 -176.69501 30065 ft 477 kts 244°
2026-05-03 20:17 13.38308 -176.75526 30063 ft 477 kts 244°
2026-05-03 20:18 13.35243 -176.81565 30051 ft 476 kts 244°
2026-05-03 20:18 13.32184 -176.87595 30059 ft 476 kts 244°
2026-05-03 20:19 13.29128 -176.93630 30054 ft 476 kts 244°
2026-05-03 20:19 13.26092 -176.99621 30053 ft 476 kts 244°
2026-05-03 20:20 13.23031 -177.05649 30053 ft 476 kts 244°
2026-05-03 20:20 13.19964 -177.11671 30055 ft 476 kts 244°
2026-05-03 20:21 13.16896 -177.17703 30053 ft 476 kts 244°
2026-05-03 20:21 13.13830 -177.23730 30052 ft 476 kts 244°
2026-05-03 20:22 13.10761 -177.29754 30042 ft 476 kts 244°
2026-05-03 20:22 13.07701 -177.35739 30043 ft 475 kts 244°
2026-05-03 20:23 13.04636 -177.41744 30047 ft 475 kts 244°
2026-05-03 20:23 13.01573 -177.47761 30048 ft 475 kts 244°
2026-05-03 20:24 12.98508 -177.53764 30047 ft 475 kts 244°
2026-05-03 20:24 12.95430 -177.59763 30049 ft 475 kts 244°
2026-05-03 20:25 12.92357 -177.65768 30045 ft 475 kts 244°
2026-05-03 20:25 12.89292 -177.71769 30039 ft 475 kts 244°
2026-05-03 20:26 12.86219 -177.77767 30040 ft 476 kts 244°
2026-05-03 20:26 12.83142 -177.83768 30042 ft 476 kts 244°
2026-05-03 20:27 12.80055 -177.89779 30044 ft 476 kts 244°
2026-05-03 20:27 12.76977 -177.95780 30044 ft 476 kts 244°
2026-05-03 20:28 12.73894 -178.01781 30041 ft 476 kts 244°
2026-05-03 20:28 12.70808 -178.07771 30043 ft 475 kts 244°
2026-05-03 20:29 12.67739 -178.13726 30042 ft 475 kts 244°
2026-05-03 20:29 12.64656 -178.19709 30044 ft 475 kts 244°
2026-05-03 20:30 12.61574 -178.25698 30040 ft 475 kts 245°
2026-05-03 20:30 12.58495 -178.31687 30042 ft 475 kts 245°
2026-05-03 20:31 12.55930 -178.36666 30042 ft 475 kts 245°
2026-05-03 20:31 12.52843 -178.42650 30041 ft 475 kts 244°
2026-05-03 20:32 12.49750 -178.48623 30039 ft 475 kts 244°
2026-05-03 20:32 12.46656 -178.54601 30035 ft 475 kts 245°
2026-05-03 20:33 12.43564 -178.60585 30034 ft 475 kts 245°
2026-05-03 20:33 12.40466 -178.66572 30035 ft 476 kts 245°
2026-05-03 20:34 12.37375 -178.72550 30032 ft 475 kts 245°
2026-05-03 20:34 12.34280 -178.78521 30036 ft 475 kts 244°
2026-05-03 20:35 12.31181 -178.84483 30034 ft 475 kts 244°
2026-05-03 20:35 12.28086 -178.90448 30034 ft 475 kts 245°
2026-05-03 20:36 12.25001 -178.96415 30039 ft 474 kts 244°
2026-05-03 20:36 12.21900 -179.02384 30037 ft 474 kts 244°
2026-05-03 20:37 12.18813 -179.08289 30031 ft 474 kts 244°
2026-05-03 20:37 12.15707 -179.14241 30033 ft 474 kts 244°
2026-05-03 20:38 12.12617 -179.20193 30033 ft 474 kts 244°
2026-05-03 20:38 12.09524 -179.26145 30034 ft 474 kts 244°
2026-05-03 20:39 12.06422 -179.32097 30034 ft 474 kts 244°
2026-05-03 20:39 12.03319 -179.38046 30021 ft 474 kts 244°
2026-05-03 20:40 12.00218 -179.43990 30026 ft 474 kts 244°
2026-05-03 20:40 11.97109 -179.49932 30029 ft 474 kts 244°
2026-05-03 20:41 11.94000 -179.55881 30033 ft 474 kts 244°
2026-05-03 20:41 11.90895 -179.61830 30031 ft 474 kts 244°
2026-05-03 20:42 11.87787 -179.67772 30022 ft 474 kts 244°
2026-05-03 20:42 11.84695 -179.73672 30024 ft 474 kts 244°
2026-05-03 20:43 11.81556 -179.79647 30024 ft 474 kts 244°
2026-05-03 20:43 11.78466 -179.85555 30025 ft 474 kts 244°
2026-05-03 20:44 11.75352 -179.91486 30028 ft 474 kts 244°
2026-05-03 20:44 11.72238 -179.97421 30022 ft 474 kts 244°
2026-05-03 20:45 11.69135 179.96637 30020 ft 474 kts 244°
2026-05-03 20:45 11.66085 179.90669 30023 ft 474 kts 245°
2026-05-03 20:46 11.63055 179.84694 30021 ft 474 kts 245°
2026-05-03 20:46 11.60005 179.78722 30019 ft 474 kts 245°
2026-05-03 20:47 11.56948 179.72765 30022 ft 474 kts 245°
2026-05-03 20:47 11.53890 179.66796 30023 ft 474 kts 245°
2026-05-03 20:48 11.50836 179.60825 30022 ft 474 kts 245°
2026-05-03 20:48 11.47769 179.54865 30024 ft 474 kts 244°
2026-05-03 20:49 11.44700 179.48905 30019 ft 474 kts 245°
2026-05-03 20:49 11.41636 179.42941 30021 ft 474 kts 245°
2026-05-03 20:50 11.38598 179.37019 30019 ft 474 kts 245°
2026-05-03 20:50 11.35535 179.31068 30019 ft 474 kts 244°
2026-05-03 20:51 11.32458 179.25118 30019 ft 474 kts 244°
2026-05-03 20:51 11.29393 179.19162 30007 ft 474 kts 245°
2026-05-03 20:52 11.26337 179.13207 30011 ft 475 kts 245°
2026-05-03 20:52 11.23259 179.07245 30014 ft 475 kts 244°
2026-05-03 20:53 11.20183 179.01298 30018 ft 475 kts 244°
2026-05-03 20:53 11.17107 178.95328 30018 ft 475 kts 245°
2026-05-03 20:54 11.14040 178.89374 30013 ft 475 kts 244°
2026-05-03 20:54 11.09411 178.80453 30014 ft 475 kts 244°
2026-05-03 20:55 11.06329 178.74502 30014 ft 475 kts 244°
2026-05-03 20:55 11.03264 178.68585 30014 ft 475 kts 244°
2026-05-03 20:56 11.00189 178.62641 30009 ft 475 kts 244°
2026-05-03 20:56 10.97108 178.56695 30010 ft 475 kts 244°
2026-05-03 20:57 10.94029 178.50757 30013 ft 475 kts 244°
2026-05-03 20:57 10.90944 178.44804 30004 ft 475 kts 244°
2026-05-03 20:58 10.87882 178.38894 30010 ft 475 kts 244°
2026-05-03 20:58 10.84788 178.32953 30009 ft 475 kts 244°
2026-05-03 20:59 10.81698 178.27007 30009 ft 475 kts 244°
2026-05-03 20:59 10.78605 178.21063 30010 ft 475 kts 244°
2026-05-03 21:00 10.76536 178.17094 30011 ft 475 kts 244°
2026-05-03 21:00 10.72423 178.09185 30011 ft 475 kts 244°
2026-05-03 21:01 10.69330 178.03250 30009 ft 475 kts 244°
2026-05-03 21:01 10.66237 177.97316 30009 ft 475 kts 244°
2026-05-03 21:02 10.63142 177.91383 30009 ft 475 kts 244°
2026-05-03 21:02 10.60048 177.85447 30009 ft 475 kts 244°
2026-05-03 21:03 10.56974 177.79562 30005 ft 475 kts 244°
2026-05-03 21:03 10.53874 177.73636 29990 ft 475 kts 244°
2026-05-03 21:04 10.50771 177.67701 29997 ft 476 kts 244°
2026-05-03 21:04 10.47658 177.61758 30000 ft 476 kts 244°
2026-05-03 21:05 10.44547 177.55814 30002 ft 476 kts 244°
2026-05-03 21:05 10.41436 177.49869 29999 ft 476 kts 244°
2026-05-03 21:06 10.38321 177.43929 29996 ft 476 kts 244°
2026-05-03 21:06 10.35206 177.37990 29996 ft 476 kts 244°
2026-05-03 21:07 10.32087 177.32054 29999 ft 476 kts 244°
2026-05-03 21:07 10.28976 177.26116 30000 ft 476 kts 244°
2026-05-03 21:08 10.25867 177.20183 29995 ft 476 kts 244°
2026-05-03 21:08 10.22753 177.14258 29995 ft 476 kts 244°
2026-05-03 21:09 10.19635 177.08332 29997 ft 476 kts 244°
2026-05-03 21:09 10.16518 177.02416 29990 ft 476 kts 244°
2026-05-03 21:10 10.13393 176.96489 29993 ft 476 kts 244°
2026-05-03 21:10 10.10272 176.90563 29986 ft 476 kts 243°
2026-05-03 21:11 10.07152 176.84632 29990 ft 476 kts 243°
2026-05-03 21:11 10.04053 176.78742 29990 ft 476 kts 243°
2026-05-03 21:12 10.00924 176.72811 29990 ft 476 kts 243°
2026-05-03 21:12 9.97799 176.66890 29991 ft 476 kts 243°
2026-05-03 21:13 9.94671 176.60971 29989 ft 476 kts 243°
2026-05-03 21:13 9.91547 176.55047 29988 ft 476 kts 244°
2026-05-03 21:14 9.88420 176.49129 29985 ft 476 kts 243°
2026-05-03 21:14 9.85291 176.43210 29991 ft 476 kts 243°
2026-05-03 21:15 9.82163 176.37287 29985 ft 476 kts 243°
2026-05-03 21:15 9.79562 176.32370 29984 ft 476 kts 243°
2026-05-03 21:16 9.76421 176.26461 29978 ft 476 kts 243°
2026-05-03 21:16 9.73281 176.20547 29979 ft 476 kts 243°
2026-05-03 21:17 9.70152 176.14631 29976 ft 476 kts 243°
2026-05-03 21:17 9.67019 176.08714 29976 ft 477 kts 243°
2026-05-03 21:18 9.63880 176.02787 29984 ft 476 kts 243°
2026-05-03 21:18 9.60763 175.96910 29981 ft 477 kts 243°
2026-05-03 21:19 9.57618 175.91003 29980 ft 476 kts 244°
2026-05-03 21:19 9.54473 175.85090 29969 ft 477 kts 243°
2026-05-03 21:20 9.51333 175.79178 29976 ft 477 kts 243°
2026-05-03 21:20 9.48181 175.73265 29976 ft 477 kts 243°
2026-05-03 21:21 9.45033 175.67343 29971 ft 477 kts 243°
2026-05-03 21:21 9.41882 175.61420 29976 ft 477 kts 242°
2026-05-03 21:22 9.38730 175.55505 29964 ft 478 kts 243°
2026-05-03 21:22 9.35576 175.49584 29967 ft 477 kts 244°
2026-05-03 21:23 9.32418 175.43662 29965 ft 478 kts 243°
2026-05-03 21:23 9.29258 175.37744 29967 ft 478 kts 243°
2026-05-03 21:24 9.26095 175.31826 29970 ft 478 kts 242°
2026-05-03 21:24 9.22954 175.25954 29964 ft 478 kts 243°
2026-05-03 21:25 9.19773 175.19994 29959 ft 478 kts 244°
2026-05-03 21:25 9.16629 175.14110 29958 ft 478 kts 243°
2026-05-03 21:26 9.13461 175.08190 29964 ft 478 kts 242°
2026-05-03 21:26 9.10291 175.02269 29962 ft 478 kts 243°
2026-05-03 21:27 9.07127 174.96351 29960 ft 478 kts 243°
2026-05-03 21:27 9.03960 174.90435 29952 ft 479 kts 243°
2026-05-03 21:28 9.00775 174.84500 29953 ft 480 kts 242°
2026-05-03 21:28 8.97595 174.78560 29956 ft 480 kts 243°
2026-05-03 21:29 8.94410 174.72616 29963 ft 480 kts 243°
2026-05-03 21:29 8.91219 174.66680 29951 ft 481 kts 243°
2026-05-03 21:30 8.88043 174.60776 29953 ft 481 kts 243°
2026-05-03 21:30 8.84851 174.54817 29952 ft 482 kts 242°
2026-05-03 21:31 8.81651 174.48860 29955 ft 482 kts 242°
2026-05-03 21:31 8.78449 174.42894 29964 ft 482 kts 243°
2026-05-03 21:32 8.75270 174.36980 29952 ft 482 kts 243°
2026-05-03 21:32 8.72063 174.31032 29957 ft 482 kts 242°
2026-05-03 21:33 8.68857 174.25078 29945 ft 483 kts 243°
2026-05-03 21:33 8.65645 174.19116 29939 ft 484 kts 242°
2026-05-03 21:34 8.62421 174.13135 29939 ft 485 kts 243°
2026-05-03 21:34 8.59190 174.07133 29935 ft 486 kts 242°
2026-05-03 21:35 8.55950 174.01138 29943 ft 486 kts 244°
2026-05-03 21:35 8.52709 173.95134 29949 ft 487 kts 243°
2026-05-03 21:36 8.49486 173.89152 29946 ft 487 kts 242°
2026-05-03 21:36 8.46238 173.83138 29941 ft 488 kts 243°
2026-05-03 21:37 8.42979 173.77116 29937 ft 488 kts 242°
2026-05-03 21:37 8.39730 173.71095 29945 ft 488 kts 242°
2026-05-03 21:38 8.36489 173.65109 29951 ft 489 kts 242°
2026-05-03 21:38 8.33225 173.59090 29950 ft 489 kts 243°
2026-05-03 21:39 8.29966 173.53060 29945 ft 489 kts 242°
2026-05-03 21:39 8.26696 173.47021 29929 ft 490 kts 242°
2026-05-03 21:40 8.23425 173.40969 29925 ft 492 kts 242°
2026-05-03 21:40 8.20140 173.34905 29929 ft 493 kts 242°
2026-05-03 21:41 8.16844 173.28834 29938 ft 493 kts 242°
2026-05-03 21:41 8.13540 173.22759 29942 ft 494 kts 242°
2026-05-03 21:42 8.10239 173.16682 29942 ft 494 kts 242°
2026-05-03 21:42 8.06954 173.10635 29946 ft 495 kts 243°
2026-05-03 21:43 8.03651 173.04535 29938 ft 495 kts 242°
2026-05-03 21:43 8.00332 172.98424 29943 ft 496 kts 242°
2026-05-03 21:44 7.97007 172.92311 29937 ft 496 kts 242°
2026-05-03 21:44 7.93686 172.86213 29934 ft 496 kts 242°
2026-05-03 21:45 7.90385 172.80144 29944 ft 496 kts 243°
2026-05-03 21:45 7.87061 172.74033 29946 ft 497 kts 242°
2026-05-03 21:46 7.83732 172.67925 29945 ft 497 kts 241°
2026-05-03 21:46 7.80402 172.61821 29940 ft 496 kts 241°
2026-05-03 21:47 7.77072 172.55720 29942 ft 496 kts 242°
2026-05-03 21:47 7.73745 172.49613 29936 ft 497 kts 242°
2026-05-03 21:48 7.70426 172.43513 29935 ft 497 kts 242°
2026-05-03 21:48 7.67095 172.37403 29940 ft 496 kts 242°
2026-05-03 21:49 7.63787 172.31350 29948 ft 496 kts 242°
2026-05-03 21:49 7.60456 172.25254 29944 ft 496 kts 242°
2026-05-03 21:50 7.57119 172.19158 29940 ft 496 kts 241°
2026-05-03 21:50 7.53790 172.13067 29932 ft 496 kts 242°
2026-05-03 21:51 7.50461 172.06970 29927 ft 497 kts 242°
2026-05-03 21:51 7.47115 172.00856 29916 ft 499 kts 242°
2026-05-03 21:52 7.43780 171.94762 29907 ft 500 kts 242°
2026-05-03 21:52 7.40417 171.88619 29920 ft 501 kts 242°
2026-05-03 21:53 7.37041 171.82467 29916 ft 501 kts 242°
2026-05-03 21:53 7.33671 171.76313 29922 ft 501 kts 242°
2026-05-03 21:54 7.30302 171.70151 29627 ft 497 kts 241°
2026-05-03 21:54 7.28656 171.67156 29419 ft 481 kts 241°
2026-05-03 21:54 7.27060 171.64255 29279 ft 465 kts 241°
2026-05-03 21:55 7.25519 171.61451 29055 ft 452 kts 242°
2026-05-03 21:55 7.23863 171.58799 28698 ft 443 kts 235°
2026-05-03 21:55 7.22342 171.56181 28577 ft 426 kts 250°
2026-05-03 21:55 7.21641 171.53336 28288 ft 414 kts 264°
2026-05-03 21:56 7.21289 171.50473 27833 ft 410 kts 262°
2026-05-03 21:56 7.20813 171.47697 27367 ft 407 kts 260°
2026-05-03 21:56 7.20231 171.44930 26758 ft 401 kts 258°
2026-05-03 21:56 7.19553 171.42221 25932 ft 394 kts 255°
2026-05-03 21:57 7.18828 171.39585 25176 ft 386 kts 255°
2026-05-03 21:57 7.18101 171.37011 24413 ft 380 kts 255°
2026-05-03 21:57 7.17389 171.34465 23636 ft 375 kts 255°
2026-05-03 21:57 7.16702 171.31947 22682 ft 372 kts 255°
2026-05-03 21:58 7.16032 171.29432 21597 ft 373 kts 255°
2026-05-03 21:58 7.15373 171.26910 20557 ft 372 kts 255°
2026-05-03 21:58 7.14728 171.24394 19594 ft 369 kts 255°
2026-05-03 21:58 7.14086 171.21903 18690 ft 366 kts 253°
2026-05-03 21:59 7.13441 171.19452 17796 ft 361 kts 254°
2026-05-03 21:59 7.12793 171.17029 16844 ft 355 kts 253°
2026-05-03 21:59 7.12143 171.14647 15954 ft 349 kts 253°
2026-05-03 21:59 7.11494 171.12314 15108 ft 343 kts 252°
2026-05-03 22:00 7.10843 171.10015 14306 ft 338 kts 252°
2026-05-03 22:00 7.10073 171.07842 13897 ft 316 kts 236°
2026-05-03 22:00 7.08635 171.06319 13533 ft 293 kts 207°
2026-05-03 22:00 7.06748 171.05792 12893 ft 279 kts 174°
2026-05-03 22:01 7.04959 171.06374 12191 ft 270 kts 141°
2026-05-03 22:01 7.03571 171.07622 11501 ft 267 kts 134°
2026-05-03 22:01 7.02225 171.08905 10839 ft 265 kts 134°
2026-05-03 22:01 7.00829 171.10089 10259 ft 262 kts 146°
2026-05-03 22:02 6.99131 171.10737 9720 ft 262 kts 159°
2026-05-03 22:02 6.97417 171.11282 9143 ft 251 kts 147°
2026-05-03 22:02 6.96111 171.12339 8599 ft 237 kts 123°
2026-05-03 22:02 6.95444 171.13789 7989 ft 230 kts 98°
2026-05-03 22:03 6.95379 171.14866 7561 ft 229 kts 83°
2026-05-03 22:03 6.95825 171.16926 6779 ft 226 kts 76°
2026-05-03 22:03 6.96238 171.18449 6234 ft 223 kts 75°
2026-05-03 22:03 6.96760 171.19901 5853 ft 222 kts 62°
2026-05-03 22:04 6.97730 171.21122 5721 ft 227 kts 43°
2026-05-03 22:04 6.98605 171.21707 5642 ft 231 kts 29°
2026-05-03 22:04 7.00174 171.22115 5514 ft 239 kts
2026-05-03 22:04 7.01835 171.21836 5398 ft 248 kts 342°
2026-05-03 22:05 7.03271 171.20837 5280 ft 257 kts 315°
2026-05-03 22:05 7.04167 171.19264 5162 ft 264 kts 287°
2026-05-03 22:05 7.04275 171.17423 5044 ft 266 kts 258°
2026-05-03 22:05 7.03847 171.15597 4923 ft 268 kts 257°
2026-05-03 22:06 7.03897 171.13757 4796 ft 263 kts 294°
2026-05-03 22:06 7.04954 171.12333 4681 ft 251 kts 333°
2026-05-03 22:06 7.06539 171.11833 4565 ft 237 kts
2026-05-03 22:06 7.08175 171.11538 4433 ft 246 kts 339°
2026-05-03 22:07 7.09443 171.10358 4312 ft 259 kts 300°
2026-05-03 22:07 7.09792 171.08622 4192 ft 264 kts 262°
2026-05-03 22:07 7.09345 171.06825 4073 ft 266 kts 251°
2026-05-03 22:07 7.08727 171.05083 3952 ft 262 kts 234°
2026-05-03 22:08 7.07432 171.03909 3833 ft 247 kts 196°
2026-05-03 22:08 7.05795 171.03577 3771 ft 239 kts 172°
2026-05-03 22:08 7.04200 171.03888 3768 ft 230 kts 150°
2026-05-03 22:08 7.02895 171.04735 3771 ft 220 kts 129°
2026-05-03 22:09 7.02041 171.05976 3760 ft 214 kts 108°
2026-05-03 22:09 7.01733 171.07420 3764 ft 212 kts 88°
2026-05-03 22:09 7.01986 171.08876 3763 ft 213 kts 73°
2026-05-03 22:10 7.02765 171.11744 3757 ft 211 kts 77°
2026-05-03 22:10 7.03094 171.13129 3769 ft 197 kts 77°
2026-05-03 22:10 7.03405 171.14448 3772 ft 187 kts 77°
2026-05-03 22:10 7.03690 171.15645 3780 ft 164 kts 77°
2026-05-03 22:11 7.03939 171.16669 3779 ft 139 kts 78°
2026-05-03 22:11 7.04170 171.17615 3381 ft 143 kts 77°
2026-05-03 22:11 7.04408 171.18594 2881 ft 145 kts 77°
2026-05-03 22:11 7.04655 171.19571 2379 ft 147 kts 77°
2026-05-03 22:12 7.04907 171.20577 1859 ft 146 kts 77°
2026-05-03 22:12 7.05143 171.21576 1333 ft 146 kts 77°
2026-05-03 22:12 7.05389 171.22559 789 ft 148 kts 75°
2026-05-03 22:12 7.05616 171.23536 559 ft 137 kts 77°
2026-05-03 22:13 7.05846 171.24451 400 ft 136 kts 77°
2026-05-03 22:13 7.06057 171.25382 194 ft 135 kts 73°
2026-05-03 22:13 7.06275 171.26285 25 ft 131 kts 75°
2026-05-03 22:13 7.06464 171.27041 5 ft 77 kts 77°
2026-05-03 22:14 7.06533 171.27338 2 ft 30 kts 76°
2026-05-03 22:14 7.06581 171.27534 0 ft 28 kts 76°
2026-05-03 22:14 7.06628 171.27717 2 ft 26 kts 75°
2026-05-03 22:14 7.06669 171.27887 2 ft 25 kts 78°
2026-05-03 22:15 7.06701 171.28029 1 ft 18 kts 76°
2026-05-03 22:15 7.06744 171.28082 3 ft 9 kts 348°
2026-05-03 22:15 7.06763 171.28079 3 ft 0 kts 348°
2026-05-03 22:16 7.06766 171.28078 3 ft 2 kts 348°
2026-05-03 22:16 7.06792 171.28074 4 ft 3 kts 359°
2026-05-03 22:16 7.06797 171.28077 4 ft 2 kts 30°
2026-05-03 22:17 7.06804 171.28101 4 ft 6 kts 77°
2026-05-03 22:17 7.06805 171.28109 4 ft 0 kts 77°